Home > Weather > Peterborough > Past weeks

Flag for Canada Past Weather in Peterborough, Ontario, Canada — Yesterday and Last 2 Weeks

Now
66 °F

Overcast.


Feels Like: 66 °F
Forecast: 64 / 84 °F
Wind: 2 mph from Southwest

Location: Peterborough Airport

Current Time: Aug 28, 2016 at 6:38:02 AM

Latest Report: Aug 28, 2016 at 6:00 AM


Visibility: 8 mi

Pressure: 30.12 "Hg

Humidity: 94%

Dew Point: 64 °F

Location of PeterboroughLocation

Past Weather in Peterborough — Graph

°F

Peterborough Temperature Yesterday

Maximum temperature yesterday: 82 °F (at 2:00 PM)
Minimum temperature yesterday: 52 °F (at 6:00 AM)
Average temperature yesterday: 67 °F

High & Low Weather Summary for the Past Weeks

 TemperatureHumidityPressure
High86 °F (Aug 20, 3:00 PM)100% (Aug 13, 5:04 AM)30.26 "Hg (Aug 13, 5:04 AM)
Low45 °F (Aug 23, 6:00 AM)36% (Aug 22, 3:00 PM)29.58 "Hg (Aug 21, 5:59 AM)
Average69 °F81%29.99 "Hg
* Reported Aug 13 5:04 AM — Aug 28 5:00 AM, Peterborough, Weather by CustomWeather, © 2016

Note: Actual official high and low records may vary slightly from our data, if they occured in-between our weather recording intervals... More about our weather records

Advertising

Peterborough Weather History for the Previous 24 Hours

Scroll right to see more
 ConditionsComfort  
Time TempWeatherWind HumidityBarometerVisibility
5:00 AM
Sun, Aug 28
66 °FLight rain. Overcast.3 mph94%30.12 "Hg9 mi
4:55 AM66 °FLight rain. Overcast.6 mph94%30.13 "Hg7 mi
4:00 AM66 °FLight rain. Mostly cloudy.5 mph94%30.12 "Hg9 mi
3:00 AM66 °FMostly cloudy.2 mph83%30.14 "Hg9 mi
2:00 AM66 °FMostly cloudy.3 mph88%30.14 "Hg9 mi
1:00 AM66 °FOvercast.3 mph88%30.15 "Hg9 mi
12:00 AM66 °FMostly cloudy.No wind88%30.16 "Hg9 mi
11:00 PM
Sat, Aug 27
66 °FOvercast.No wind88%30.16 "Hg9 mi
10:00 PM66 °FOvercast.2 mph88%30.16 "Hg9 mi
9:00 PM68 °FOvercast.No wind83%30.18 "Hg9 mi
8:00 PM70 °FBroken clouds.No wind78%30.18 "Hg9 mi
7:00 PM73 °FScattered clouds.3 mph69%30.18 "Hg9 mi
6:00 PM77 °FScattered clouds.10 mph61%30.18 "Hg9 mi
5:00 PM79 °FSunny.10 mph58%30.17 "Hg9 mi
4:00 PM82 °FScattered clouds.6 mph42%30.16 "Hg9 mi
3:00 PM82 °FPassing clouds.6 mph42%30.17 "Hg9 mi
2:00 PM82 °FSunny.7 mph45%30.18 "Hg9 mi
1:00 PM81 °FSunny.3 mph48%30.19 "Hg7 mi
12:00 PM77 °FSunny.5 mph54%30.20 "Hg7 mi
11:00 AM73 °FSunny.2 mph65%30.22 "Hg9 mi
10:00 AM72 °FSunny.3 mph73%30.22 "Hg9 mi
9:00 AM68 °FSunny.2 mph83%30.22 "Hg9 mi
8:00 AM61 °FSunny.2 mph100%30.22 "Hg9 mi
7:00 AM52 °FClear.No wind100%30.22 "Hg9 mi
6:53 AM52 °FClear.2 mph100%30.22 "Hg9 mi
6:00 AM52 °FClear.No wind100%30.21 "Hg9 mi
Weather by CustomWeather, © 2016

See weather overviewHow to use our weather pages